EW5908 Weather Reports


Display with metric or nautical units.
time (UTC)temp
F
wind
direction
speed
MPH
gust
MPH
rain 1hr
in
rain 24hr
in
rain mn
in
humidity
%
barometer
mb
20230130074922 -2 298 0.0 0.0 0.00 0.00 0.00 79 1029.1
20230130073921 -2 274 0.0 0.0 0.00 0.00 0.00 79 1029.1
20230130072922 -2 289 0.0 0.0 0.00 0.00 0.00 79 1029.1
20230130071924 -1 286 0.0 0.0 0.00 0.00 0.00 79 1029.2
20230130070925 -1 302 0.0 0.0 0.00 0.00 0.00 79 1029.1
20230130070921 -1 299 0.0 0.0 0.00 0.00 0.00 79 1029.1
20230130064922 -1 292 0.0 0.0 0.00 0.00 0.00 78 1029.1
20230130063921 -1 295 0.0 0.0 0.00 0.00 0.00 78 1028.9
20230130062921 -1 286 0.0 0.0 0.00 0.00 0.00 78 1028.9
20230130061921 0 331 0.0 3.0 0.00 0.00 0.00 78 1028.8
20230130060920 0 290 0.0 7.0 0.00 0.00 0.00 78 1028.9
20230130055920 0 279 0.0 3.0 0.00 0.00 0.00 78 1029.1
20230130054920 0 302 0.0 1.0 0.00 0.00 0.00 78 1029.2
20230130053920 0 289 0.0 0.0 0.00 0.00 0.00 78 1029.1
20230130052919 0 285 0.0 0.0 0.00 0.00 0.00 78 1029.3
20230130051919 0 288 0.0 0.0 0.00 0.00 0.00 78 1029.3
20230130050919 0 262 0.0 0.0 0.00 0.00 0.00 79 1028.8
20230130045919 0 275 0.0 0.0 0.00 0.00 0.00 79 1028.8
20230130044918 0 272 0.0 0.0 0.00 0.00 0.00 79 1028.9
20230130043925 -1 290 0.0 0.0 0.00 0.00 0.00 78 1029.1
20230130043918 0 293 0.0 0.0 0.00 0.00 0.00 78 1028.9
20230130041918 -1 293 0.0 0.0 0.00 0.00 0.00 78 1029.1
20230130040918 -1 289 0.0 0.0 0.00 0.00 0.00 78 1028.9
20230130035918 0 292 0.0 0.0 0.00 0.00 0.00 78 1028.9
20230130034916 0 282 0.0 4.0 0.00 0.00 0.00 77 1028.8
20230130033917 0 281 0.0 0.0 0.00 0.00 0.00 77 1028.7
20230130032917 0 275 0.0 7.0 0.00 0.00 0.00 77 1028.8
20230130031916 0 278 0.0 0.0 0.00 0.00 0.00 77 1028.7
20230130030916 0 278 0.0 0.0 0.00 0.00 0.00 77 1028.7
20230130025916 0 295 0.0 6.0 0.00 0.00 0.00 77 1028.5
20230130024917 0 293 0.0 4.0 0.00 0.00 0.00 76 1028.5
20230130023916 0 281 0.0 3.0 0.00 0.00 0.00 76 1028.5
20230130022916 0 282 0.0 0.0 0.00 0.00 0.00 75 1028.4
20230130021919 0 295 0.0 3.0 0.00 0.00 0.00 75 1028.5
20230130021915 0 293 0.0 4.0 0.00 0.00 0.00 75 1028.3
20230130015915 0 278 0.0 0.0 0.00 0.00 0.00 74 1028.5
20230130014918 1 288 0.0 0.0 0.00 0.00 0.00 74 1028.5
20230130013917 1 293 0.0 0.0 0.00 0.00 0.00 74 1028.4
20230130012917 1 279 0.0 0.0 0.00 0.00 0.00 74 1028.3
20230130011916 1 288 0.0 5.0 0.00 0.00 0.00 73 1028.3
20230130010914 1 283 0.0 4.0 0.00 0.00 0.00 73 1028.3
20230130005914 1 281 0.0 0.0 0.00 0.00 0.00 72 1028.2
20230130004918 2 290 0.0 0.0 0.00 0.00 0.00 70 1028.4
20230130004914 1 278 0.0 0.0 0.00 0.00 0.00 71 1028.3
20230130002913 2 285 0.0 2.0 0.00 0.00 0.00 70 1028.2
20230130001914 2 275 0.0 6.0 0.00 0.00 0.00 69 1028.2
20230130000917 2 279 0.0 0.0 0.00 0.00 0.00 68 1028.1
20230130000912 2 296 0.0 6.0 0.00 0.00 0.00 69 1028.3
20230129234913 3 288 0.0 2.0 0.00 0.00 0.00 68 1028.0
20230129233912 3 298 0.0 2.0 0.00 0.00 0.00 67 1028.0
20230129232911 3 255 0.0 1.0 0.00 0.00 0.00 66 1028.0
20230129231914 4 279 0.0 4.0 0.00 0.00 0.00 65 1027.8
20230129231910 4 307 0.0 3.0 0.00 0.00 0.00 66 1027.9
20230129225914 4 296 0.0 3.0 0.00 0.00 0.00 63 1027.9
20230129225910 4 285 0.0 5.0 0.00 0.00 0.00 64 1027.7
20230129223910 4 276 0.0 2.0 0.00 0.00 0.00 63 1028.0
20230129222914 5 292 0.0 6.0 0.00 0.00 0.00 62 1027.7
20230129222910 4 289 0.0 6.0 0.00 0.00 0.00 63 1027.8
20230129220909 5 321 0.0 4.0 0.00 0.00 0.00 62 1027.7
20230129215909 5 245 1.0 6.0 0.00 0.00 0.00 62 1027.7
20230129214908 6 283 0.0 4.0 0.00 0.00 0.00 61 1027.7
20230129213913 6 300 0.0 5.0 0.00 0.00 0.00 60 1027.6
20230129213908 6 293 1.0 6.0 0.00 0.00 0.00 60 1027.5
20230129211910 6 283 0.0 1.0 0.00 0.00 0.00 60 1027.7
20230129210910 7 290 0.0 5.0 0.00 0.00 0.00 60 1027.7
20230129205908 6 295 0.0 4.0 0.00 0.00 0.00 60 1027.7
20230129204907 6 302 1.0 5.0 0.00 0.00 0.00 59 1027.6
20230129203908 6 289 2.0 6.0 0.00 0.00 0.00 60 1027.5
20230129202912 6 289 0.0 9.0 0.00 0.00 0.00 60 1027.7
20230129202908 6 341 0.0 9.0 0.00 0.00 0.00 60 1027.7
20230129200909 6 296 0.0 9.0 0.00 0.00 0.00 60 1027.8
20230129195908 6 321 2.0 6.0 0.00 0.00 0.00 61 1027.8
20230129194907 6 299 0.0 7.0 0.00 0.00 0.00 61 1027.9
20230129193906 5 275 1.0 6.0 0.00 0.00 0.00 62 1027.9
20230129192907 5 275 0.0 3.0 0.00 0.00 0.00 62 1028.0
20230129191906 6 282 0.0 7.0 0.00 0.00 0.00 62 1028.1
20230129190905 6 321 0.0 5.0 0.00 0.00 0.00 62 1028.2
20230129185905 6 289 0.0 0.0 0.00 0.00 0.00 63 1028.3
20230129184905 5 296 0.0 0.0 0.00 0.00 0.00 63 1028.4
20230129183905 4 312 0.0 0.0 0.00 0.00 0.00 64 1028.4
20230129182905 4 290 0.0 0.0 0.00 0.00 0.00 64 1028.4
20230129181905 4 323 0.0 0.0 0.00 0.00 0.00 65 1028.5
20230129180908 4 314 0.0 0.0 0.00 0.00 0.00 64 1029.1
20230129180904 4 320 0.0 0.0 0.00 0.00 0.00 65 1028.9
20230129174904 4 299 0.0 0.0 0.00 0.00 0.00 66 1029.3
20230129173904 4 321 0.0 0.0 0.00 0.00 0.00 67 1029.4
20230129172903 3 255 0.0 0.0 0.00 0.00 0.00 67 1029.7
20230129171904 2 290 0.0 0.0 0.00 0.00 0.00 67 1029.9
20230129170903 1 281 0.0 0.0 0.00 0.00 0.00 67 1030.1
20230129165903 2 310 0.0 0.0 0.00 0.00 0.00 68 1030.3
20230129164903 1 313 0.0 0.0 0.00 0.00 0.00 70 1030.4
20230129163902 0 326 0.0 0.0 0.00 0.00 0.00 69 1030.7
20230129162902 0 296 0.0 0.0 0.00 0.00 0.00 69 1030.5
20230129161902 0 298 0.0 0.0 0.00 0.00 0.00 70 1030.6
20230129160902 0 305 0.0 0.0 0.00 0.00 0.00 70 1030.7
20230129155902 0 310 0.0 0.0 0.00 0.00 0.00 71 1030.4
20230129154901 -1 289 0.0 0.0 0.00 0.00 0.00 70 1030.4
20230129153901 -1 313 0.0 0.0 0.00 0.00 0.00 71 1030.4
20230129152902 -1 300 0.0 0.0 0.00 0.00 0.00 71 1030.1
20230129151901 -1 295 0.0 5.0 0.00 0.00 0.00 71 1029.9
20230129150902 -1 305 0.0 3.0 0.00 0.00 0.00 73 1029.7
20230129145900 -1 298 0.0 2.0 0.00 0.00 0.00 72 1029.6
20230129144901 -2 312 0.0 3.0 0.00 0.00 0.00 74 1029.3
20230129143900 -2 316 0.0 0.0 0.00 0.00 0.00 74 1028.9
20230129142859 -3 306 0.0 0.0 0.00 0.00 0.00 75 1029.1
20230129141900 -3 305 0.0 0.0 0.00 0.00 0.00 75 1028.9
20230129140859 -3 313 0.0 3.0 0.00 0.00 0.00 75 1028.7
20230129135900 -3 307 0.0 0.0 0.00 0.00 0.00 75 1028.6
20230129134859 -3 309 0.0 0.0 0.00 0.00 0.00 75 1028.5
20230129133901 -3 334 0.0 0.0 0.00 0.00 0.00 75 1028.0
20230129132859 -3 0 0.0 0.0 0.00 0.00 0.00 74 1027.9
20230129131858 -3 0 0.0 0.0 0.00 0.00 0.00 74 1027.9
20230129130858 -2 0 0.0 0.0 0.00 0.00 0.00 74 1027.8
20230129125858 -2 0 0.0 0.0 0.00 0.00 0.00 73 1027.3
20230129124901 -2 0 0.0 0.0 0.00 0.00 0.00 73 1027.6
20230129123857 -2 1 0.0 0.0 0.00 0.00 0.00 72 1027.7
20230129122857 -1 326 0.0 0.0 0.00 0.00 0.00 72 1027.8
20230129121902 -1 326 0.0 0.0 0.00 0.00 0.00 72 1027.8
20230129121857 -1 326 0.0 0.0 0.00 0.00 0.00 72 1028.1
20230129115900 -1 340 0.0 0.0 0.00 0.00 0.00 72 1028.1
20230129114900 0 3 0.0 0.0 0.00 0.00 0.00 71 1027.6
20230129114856 0 333 0.0 0.0 0.00 0.00 0.00 71 1027.7
20230129112857 0 336 0.0 0.0 0.00 0.00 0.00 71 1027.6
20230129111858 0 351 0.0 0.0 0.00 0.00 0.00 71 1027.6
20230129110856 1 0 0.0 5.0 0.00 0.00 0.00 70 1027.6
20230129105858 1 350 0.0 0.0 0.00 0.00 0.00 70 1027.6
20230129104856 1 329 0.0 0.0 0.00 0.00 0.00 70 1027.8
20230129103858 1 300 1.0 10.0 0.00 0.00 0.00 69 1027.8
20230129102855 1 8 0.0 4.0 0.00 0.00 0.00 69 1027.6
20230129101856 1 353 0.0 6.0 0.00 0.00 0.00 69 1027.7
20230129100856 1 326 0.0 6.0 0.00 0.00 0.00 69 1027.9
20230129095855 1 354 0.0 0.0 0.00 0.00 0.00 69 1027.9
20230129094855 1 303 0.0 2.0 0.00 0.00 0.00 69 1027.8
20230129093858 1 336 0.0 2.0 0.00 0.00 0.00 69 1027.6
20230129093854 1 323 0.0 6.0 0.00 0.00 0.00 69 1027.8
20230129091855 1 0 0.0 3.0 0.00 0.00 0.00 68 1027.6
20230129090853 1 0 0.0 4.0 0.00 0.00 0.00 67 1027.6
20230129085853 1 343 0.0 5.0 0.00 0.00 0.00 68 1027.7
20230129084854 1 320 0.0 4.0 0.00 0.00 0.00 67 1027.7
20230129083854 1 348 0.0 4.0 0.00 0.00 0.00 66 1027.8
20230129082853 1 314 0.0 3.0 0.00 0.00 0.00 66 1027.6
20230129081853 1 350 0.0 0.0 0.00 0.00 0.00 66 1027.5
20230129080853 1 0 0.0 6.0 0.00 0.00 0.00 66 1027.3